[TLELIST] Archives

 

[list_settings.list_name] Current TLEs

January 19th 2009 PST

HST 1 20580U 90037B 09018.19506749 .00000301 00000-0 10407-4 0 3076 2 20580 028.4704 000.8215 0003838 149.5744 210.5067 15.00447612827305 ISS (ZARYA) 1 25544U 98067A 09018.21402072 .00011381 00000-0 95648-4 0 931 2 25544 051.6432 354.6308 0007786 277.4236 160.3645 15.70414695582362 CXO 1 25867U 99040B 09015.75000000 +.00000002 +00000-0 +10000-3 0 02840 2 25867 064.7511 074.2484 7235155 276.8575 356.3235 00.37805437004436 ____________________________________________________________________ These 2-Line ...Continue Reading

[list_settings.list_name] Current TLEs

January 18th 2009 PST

HST 1 20580U 90037B 09016.33262167 .00000284 00000-0 91227-5 0 3062 2 20580 028.4705 012.9695 0003803 130.0522 230.0402 15.00447010827024 ISS (ZARYA) 1 25544U 98067A 09016.49833955 .00015273 00000-0 12682-3 0 825 2 25544 051.6425 003.3946 0007863 270.4490 181.3573 15.70379309582096 CXO 1 25867U 99040B 09015.75000000 +.00000002 +00000-0 +10000-3 0 02840 2 25867 064.7511 074.2484 7235155 276.8575 356.3235 00.37805437004436 ____________________________________________________________________ These 2-Line ...Continue Reading

[list_settings.list_name] Current TLEs

January 17th 2009 PST

HST 1 20580U 90037B 09015.20185026 .00000274 00000-0 82936-5 0 3050 2 20580 028.4706 020.3463 0003723 118.6571 241.4392 15.00446644826854 ISS (ZARYA) 1 25544U 98067A 09015.54467791 .00059341 00000-0 47612-3 0 770 2 25544 051.6423 008.2664 0008053 268.3873 188.4684 15.70384421581943 CXO 1 25867U 99040B 09015.75000000 +.00000002 +00000-0 +10000-3 0 02840 2 25867 064.7511 074.2484 7235155 276.8575 356.3235 00.37805437004436 ____________________________________________________________________ These 2-Line ...Continue Reading

[list_settings.list_name] Current TLEs

January 16th 2009 PST

HST 1 20580U 90037B 09015.20185026 .00000274 00000-0 82936-5 0 3050 2 20580 028.4706 020.3463 0003723 118.6571 241.4392 15.00446644826854 ISS (ZARYA) 1 25544U 98067A 09014.52569641 .00011412 00000-0 88977-4 0 681 2 25544 051.6428 013.4687 0006466 193.8686 257.0038 15.72233334581787 CXO 1 25867U 99040B 09013.12500000 .00000038 00000-0 10000-3 0 2832 2 25867 064.7413 074.3574 7230519 276.8729 358.9060 00.37806719 4425 ____________________________________________________________________ These 2-Line ...Continue Reading

[list_settings.list_name] Current TLEs

January 15th 2009 PST

HST 1 20580U 90037B 09013.40591761 .00000271 00000-0 80505-5 0 3043 2 20580 028.4707 032.0598 0003645 100.3390 259.7609 15.00446222826589 ISS (ZARYA) 1 25544U 98067A 09013.51803885 .00010885 00000-0 85177-4 0 615 2 25544 051.6431 018.6302 0006600 189.7471 313.9421 15.72207023581625 CXO 1 25867U 99040B 09013.12500000 .00000038 00000-0 10000-3 0 2832 2 25867 064.7413 074.3574 7230519 276.8729 358.9060 00.37806719 4425 ____________________________________________________________________ These 2-Line ...Continue Reading

[list_settings.list_name] Current TLEs

January 14th 2009 PST

HST 1 20580U 90037B 09012.20862878 .00000287 00000-0 93588-5 0 3031 2 20580 028.4699 039.8730 0003468 087.3861 272.7128 15.00446074826409 ISS (ZARYA) 1 25544U 98067A 09013.19180883 .00010797 00000-0 84553-4 0 580 2 25544 051.6424 020.3000 0006517 189.1408 266.8625 15.72199019581574 CXO 1 25867U 99040B 09013.12500000 .00000038 00000-0 10000-3 0 2832 2 25867 064.7413 074.3574 7230519 276.8729 358.9060 00.37806719 4425 ____________________________________________________________________ These 2-Line ...Continue Reading

[list_settings.list_name] Current TLEs

January 13th 2009 PST

HST 1 20580U 90037B 09012.20862878 .00000287 00000-0 93588-5 0 3031 2 20580 028.4699 039.8730 0003468 087.3861 272.7128 15.00446074826409 ISS (ZARYA) 1 25544U 98067A 09011.85056079 .00010407 00000-0 81779-4 0 495 2 25544 051.6431 027.1693 0006592 183.9969 235.6151 15.72167165581364 CXO 1 25867U 99040B 09013.12500000 .00000038 00000-0 10000-3 0 2832 2 25867 064.7413 074.3574 7230519 276.8729 358.9060 00.37806719 4425 ____________________________________________________________________ These 2-Line ...Continue Reading

[list_settings.list_name] Current TLEs

January 12th 2009 PST

HST 1 20580U 90037B 09010.47921057 .00000264 00000-0 75122-5 0 3021 2 20580 028.4698 051.1533 0003435 068.4096 291.6857 15.00445478826147 ISS (ZARYA) 1 25544U 98067A 09010.52935259 .00010461 00000-0 82276-4 0 419 2 25544 051.6432 033.9355 0006655 179.0341 317.8373 15.72138300581150 CXO 1 25867U 99040B 09007.83333333 +.00000122 +00000-0 +10000-3 0 02829 2 25867 064.7295 074.5474 7216117 276.9709 358.3716 00.37798958004406 ____________________________________________________________________ These 2-Line ...Continue Reading

[list_settings.list_name] Current TLEs

January 11th 2009 PST

HST 1 20580U 90037B 09009.21540353 .00000309 00000-0 11050-4 0 3015 2 20580 028.4698 059.3958 0003411 054.9848 305.1067 15.00445553825953 ISS (ZARYA) 1 25544U 98067A 09009.86870370 .00010577 00000-0 83186-4 0 369 2 25544 051.6433 037.3179 0006648 177.6896 177.6109 15.72124150581049 CXO 1 25867U 99040B 09007.83333333 +.00000122 +00000-0 +10000-3 0 02829 2 25867 064.7295 074.5474 7216117 276.9709 358.3716 00.37798958004406 ____________________________________________________________________ These 2-Line ...Continue Reading

[list_settings.list_name] Current TLEs

January 10th 2009 PST

HST 1 20580U 90037B 09009.21540353 .00000309 00000-0 11050-4 0 3015 2 20580 028.4698 059.3958 0003411 054.9848 305.1067 15.00445553825953 ISS (ZARYA) 1 25544U 98067A 09006.87881944 +.00012711 +00000-0 +99260-4 0 00155 2 25544 051.6428 052.6262 0007025 167.1222 175.4681 15.72061961580571 CXO 1 25867U 99040B 09007.83333333 +.00000122 +00000-0 +10000-3 0 02829 2 25867 064.7295 074.5474 7216117 276.9709 358.3716 00.37798958004406 ____________________________________________________________________ These 2-Line ...Continue Reading
  • This mailing list is a public mailing list - anyone may join or leave, at any time.
  • This mailing list is announce-only.

International Space Station (ISS) / Hubble Space Telescope (HST) / Chandra X-Ray Observatory Orbital Data via EMAIL

Privacy Policy:

Private list